Regional Weather Roundup
Issued by NWS Goodland, KS

Home | Current Version | Previous Version | Text Only | Print | Product List | Glossary On
Versions: 1 2 3 4 5 6 7 8 9 10 11 12 13 14 15 16 17 18 19 20 21 22 23 24 25 26 27 28 29 30 31 32 33 34 35 36 37 38 39 40 41 42 43 44 45 46 47 48 49 50
000
ASUS43 KGLD 272208
RWRGLD

GOODLAND FORECAST AREA HOURLY WEATHER ROUNDUP
NATIONAL WEATHER SERVICE GOODLAND KS
400 PM MDT FRI MAY 27 2016

...OFFICIAL OBSERVATIONS...

CITY           SKY/WX    TMP DP  RH WIND       PRES   REMARKS
GOODLAND KS    MOSUNNY   61  54  77 NE14G24   29.73F
HILL CITY KS   CLOUDY    63  59  87 NE8       29.71F
IMPERIAL NEB   HVY RAIN  54  52  94 N22       29.79R VSB 3/4
MCCOOK NEB     CLOUDY    62  56  80 E13       29.73S
AKRON CO       SUNNY     56  44  64 N25G33    29.85S
BURLINGTON CO  TSTM      56  51  84 NW16G26   29.79R
LIMON CO       CLOUDY    52  46  80 N18       29.87R
$$

...UNOFFICIAL OBSERVATIONS...

CITY           SKY/WX    TMP DP  RH WIND       PRES   REMARKS
GOVE KS          N/A     67  32  27 MISG        N/A
LENORA KS        N/A     63  32  31 MISG        N/A
SHARON SPRINGS   N/A     62  54  74 NE13        N/A
KIT CARSON CO    N/A     56  47  72 MISG        N/A
YUMA CO          N/A     61  49  63 NE17G24     N/A
$$



USA.gov is the U.S. government's official web portal to all federal, state and local government web resources and services.